AD8PA-13 Weather Reports


time (UTC)temp
C
wind
direction
speed
KPH
gust
KPH
rain 1hr
cm
rain 24hr
cm
rain mn
cm
humidity
%
barometer
mb
20260510231216 15 301 1.6 6.4 0.00 0.00 0.00 34 1019.6
20260510225716 13 275 3.2 4.8 0.00 0.00 0.00 35 1019.4
20260510224216 15 331 1.6 6.4 0.00 0.00 0.00 35 1019.6
20260510222713 15 207 3.2 6.4 0.00 0.00 0.00 35 1019.5
20260510221208 14 57 0.0 4.8 0.00 0.00 0.00 35 1019.4
20260510215709 15 317 1.6 3.2 0.00 0.00 0.00 36 1019.2
20260510214206 16 263 3.2 11.3 0.00 0.00 0.00 33 1019.0
20260510212701 17 305 3.2 12.9 0.00 0.00 0.00 33 1019.1
20260510211202 16 252 4.8 6.4 0.00 0.00 0.00 31 1018.8
20260510205700 16 306 0.0 6.4 0.00 0.00 0.00 35 1018.7
20260510204154 16 294 0.0 9.7 0.00 0.00 0.00 34 1018.7
20260510202653 15 301 9.7 11.3 0.00 0.00 0.00 32 1019.1
20260510201149 16 5 3.2 4.8 0.00 0.00 0.00 31 1018.9
20260510195646 16 266 3.2 9.7 0.00 0.00 0.00 32 1018.9
20260510194144 16 278 3.2 4.8 0.00 0.00 0.00 31 1019.1
20260510192643 16 221 14.5 16.1 0.00 0.00 0.00 30 1019.4
20260510191137 16 228 1.6 6.4 0.00 0.00 0.00 30 1019.2
20260510185634 15 241 6.4 9.7 0.00 0.00 0.00 30 1019.2
20260510184131 15 225 4.8 16.1 0.00 0.00 0.00 32 1019.4
20260510182630 16 338 0.0 3.2 0.00 0.00 0.00 32 1019.2
20260510181125 17 13 1.6 1.6 0.00 0.00 0.00 31 1019.1
20260510175620 15 318 3.2 11.3 0.00 0.00 0.00 33 1018.8
20260510174117 15 275 3.2 6.4 0.00 0.00 0.00 32 1018.7
20260510172616 15 32 0.0 6.4 0.00 0.00 0.00 37 1018.9
20260510171114 14 177 4.8 11.3 0.00 0.00 0.00 32 1018.9
20260510165608 14 276 1.6 4.8 0.00 0.00 0.00 37 1019.1
20260510164104 14 262 4.8 12.9 0.00 0.00 0.00 34 1019.0
20260510162602 14 217 1.6 9.7 0.00 0.00 0.00 35 1018.8
20260510161057 14 258 3.2 6.4 0.00 0.00 0.00 35 1019.2
20260510155557 14 339 1.6 4.8 0.00 0.00 0.00 38 1019.0
20260510154056 13 274 8.0 12.9 0.00 0.00 0.00 33 1018.6
20260510152556 13 243 4.8 11.3 0.00 0.00 0.00 35 1018.6
20260510151053 13 18 4.8 6.4 0.00 0.00 0.00 38 1018.4
20260510145552 12 198 1.6 6.4 0.00 0.00 0.00 40 1018.2
20260510144047 12 279 3.2 12.9 0.00 0.00 0.00 39 1018.2
20260510142547 12 198 1.6 3.2 0.00 0.00 0.00 40 1018.1
20260510141044 11 287 1.6 6.4 0.00 0.00 0.00 42 1017.9
20260510135540 11 34 1.6 3.2 0.00 0.00 0.00 45 1017.8
20260510134037 11 303 1.6 3.2 0.00 0.00 0.00 44 1017.8
20260510132537 11 63 1.6 3.2 0.00 0.00 0.00 47 1017.8
20260510131034 10 315 0.0 4.8 0.00 0.00 0.00 47 1017.5
20260510125530 10 333 1.6 4.8 0.00 0.00 0.00 48 1017.4
20260510124026 9 282 1.6 4.8 0.00 0.00 0.00 49 1017.3
20260510122525 9 254 3.2 4.8 0.00 0.00 0.00 51 1017.3
20260510121022 8 251 1.6 3.2 0.00 0.00 0.00 55 1017.1
20260510115517 8 46 3.2 4.8 0.00 0.00 0.00 57 1016.8
20260510114012 7 262 1.6 4.8 0.00 0.00 0.00 57 1016.6
20260510112508 6 287 0.0 1.6 0.00 0.00 0.00 65 1016.5
20260510111009 5 280 0.0 1.6 0.00 0.00 0.00 68 1016.3
20260510105508 4 276 0.0 0.0 0.00 0.00 0.00 73 1016.1
20260510104008 4 240 0.0 0.0 0.00 0.00 0.00 74 1015.7
20260510102504 4 268 0.0 1.6 0.00 0.00 0.00 72 1015.5
20260510101002 4 270 0.0 1.6 0.00 0.00 0.00 74 1015.7
20260510095502 4 308 0.0 0.0 0.00 0.00 0.00 74 1015.2
20260510093958 5 308 0.0 0.0 0.00 0.00 0.00 69 1015.1
20260510092454 6 258 0.0 0.0 0.00 0.00 0.00 65 1015.1
20260510090953 6 286 1.6 3.2 0.00 0.00 0.00 64 1015.0
20260510085452 6 34 1.6 3.2 0.00 0.00 0.00 65 1014.7
20260510083948 7 221 0.0 1.6 0.00 0.00 0.00 64 1014.6
20260510082444 7 50 0.0 1.6 0.00 0.00 0.00 62 1014.0
20260510080941 7 24 0.0 4.8 0.00 0.00 0.00 60 1013.6
20260510075440 7 30 1.6 4.8 0.00 0.00 0.00 58 1013.3
20260510073936 7 19 3.2 6.4 0.00 0.00 0.00 58 1013.0
20260510072431 8 306 1.6 1.6 0.00 0.00 0.00 61 1012.6
20260510070927 8 75 1.6 3.2 0.00 0.00 0.00 62 1012.2
20260510065422 8 236 1.6 4.8 0.00 0.00 0.00 61 1012.1
20260510063918 8 297 0.0 0.0 0.00 0.00 0.00 61 1012.1
20260510062413 9 2 0.0 3.2 0.00 0.00 0.00 62 1012.0
20260510060913 9 241 1.6 1.6 0.00 0.00 0.00 60 1011.8
20260510055414 8 274 0.0 1.6 0.00 0.00 0.00 66 1011.8
20260510053909 8 114 0.0 0.0 0.00 0.00 0.00 69 1011.5
20260510052409 9 14 0.0 0.0 0.00 0.00 0.00 67 1011.1
20260510050904 10 52 0.0 0.0 0.00 0.00 0.00 63 1010.8
20260510045400 11 337 1.6 1.6 0.00 0.00 0.00 60 1010.5
20260510043856 11 262 1.6 1.6 0.00 0.00 0.00 59 1010.5
20260510042352 11 22 0.0 1.6 0.00 0.00 0.00 58 1009.9
20260510040849 11 274 0.0 0.0 0.00 0.00 0.00 59 1010.0
20260510035349 12 288 0.0 4.8 0.00 0.18 0.18 56 1009.8
20260510033845 12 286 0.0 1.6 0.00 0.18 0.18 55 1009.6
20260510032341 13 273 1.6 3.2 0.00 0.18 0.18 53 1009.6
20260510030838 13 293 1.6 4.8 0.00 0.18 0.18 51 1009.3
20260510025335 13 234 1.6 11.3 0.00 0.18 0.18 49 1009.1
20260510023830 14 332 3.2 12.9 0.00 0.18 0.18 47 1008.9
20260510022328 15 346 0.0 4.8 0.00 0.18 0.18 47 1008.5
20260510020828 16 293 4.8 9.7 0.00 0.18 0.18 46 1008.0
20260510015326 16 245 3.2 16.1 0.00 0.18 0.18 46 1007.5
20260510013826 16 279 1.6 1.6 0.00 0.18 0.18 51 1007.0
20260510012323 16 273 0.0 4.8 0.00 0.18 0.18 51 1006.5
20260510010822 16 250 0.0 1.6 0.00 0.18 0.18 51 1005.8
20260510005319 16 278 0.0 1.6 0.00 0.18 0.18 50 1005.7
20260510003817 17 326 0.0 3.2 0.00 0.18 0.18 49 1005.4
20260510002316 17 268 1.6 6.4 0.00 0.18 0.18 46 1005.1
20260510000812 18 263 0.0 6.4 0.00 0.18 0.18 45 1005.0
20260509235309 18 36 0.0 9.7 0.00 0.18 0.18 43 1004.7
20260509233806 19 242 1.6 6.4 0.00 0.18 0.18 42 1004.7
20260509232306 20 7 3.2 9.7 0.00 0.18 0.18 41 1004.5